Time,TemperatureF,DewpointF,PressureIn,WindDirection,WindDirectionDegrees,WindSpeedMPH,WindSpeedGustMPH,Humidity,HourlyPrecipIn,Conditions,Clouds,dailyrainin,SoftwareType,DateUTC
2013-06-14 00:05:00,79.3,71.9,30.01,NW,315,1.6,3.1,78,0.00,,,0.00,pywws,2013-06-14 04:05:00,
2013-06-14 00:09:00,79.0,71.5,30.01,West,270,0.7,2.2,78,0.00,,,0.00,pywws,2013-06-14 04:09:00,
2013-06-14 00:19:00,78.8,71.7,30.02,West,270,1.6,3.1,79,0.00,,,0.00,pywws,2013-06-14 04:19:00,
2013-06-14 00:24:00,78.6,71.2,30.02,NW,315,0.7,1.6,78,0.00,,,0.00,pywws,2013-06-14 04:24:00,
2013-06-14 00:35:00,78.4,71.4,30.02,West,270,0.7,2.2,79,0.00,,,0.00,pywws,2013-06-14 04:35:00,
2013-06-14 00:39:00,78.4,71.0,30.03,West,270,1.6,3.1,78,0.00,,,0.00,pywws,2013-06-14 04:39:00,
2013-06-14 00:44:00,78.4,71.0,30.03,West,270,0.7,2.2,78,0.00,,,0.00,pywws,2013-06-14 04:44:00,
2013-06-14 00:49:00,78.4,71.0,30.03,West,270,0.7,3.1,78,0.00,,,0.00,pywws,2013-06-14 04:49:00,
2013-06-14 00:54:00,78.3,71.2,30.04,West,270,0.0,2.2,79,0.00,,,0.00,pywws,2013-06-14 04:54:00,
2013-06-14 01:05:00,78.1,71.0,30.04,NNW,338,0.7,2.2,79,0.00,,,0.00,pywws,2013-06-14 05:05:00,
2013-06-14 01:09:00,77.7,71.0,30.04,West,270,0.7,2.2,80,0.00,,,0.00,pywws,2013-06-14 05:09:00,
2013-06-14 01:14:00,77.5,70.9,30.05,West,270,1.6,3.1,80,0.00,,,0.00,pywws,2013-06-14 05:14:00,
2013-06-14 01:19:00,77.4,71.1,30.06,NW,315,1.6,2.2,81,0.00,,,0.00,pywws,2013-06-14 05:19:00,
2013-06-14 01:24:00,77.2,70.9,30.06,NW,315,0.7,2.2,81,0.00,,,0.00,pywws,2013-06-14 05:24:00,
2013-06-14 01:35:00,77.2,70.9,30.06,NNE,22,0.7,2.2,81,0.00,,,0.00,pywws,2013-06-14 05:35:00,
2013-06-14 01:39:00,77.0,70.3,30.06,SW,225,0.7,2.2,80,0.00,,,0.00,pywws,2013-06-14 05:39:00,
2013-06-14 01:44:00,76.8,70.2,30.07,West,270,0.7,3.1,80,0.00,,,0.00,pywws,2013-06-14 05:44:00,
2013-06-14 01:49:00,76.6,70.4,30.07,West,270,0.7,2.2,81,0.00,,,0.00,pywws,2013-06-14 05:49:00,
2013-06-14 01:54:00,76.5,70.2,30.07,NW,315,1.6,3.1,81,0.00,,,0.00,pywws,2013-06-14 05:54:00,
2013-06-14 02:05:00,76.3,70.0,30.08,West,270,0.7,2.2,81,0.00,,,0.00,pywws,2013-06-14 06:05:00,
2013-06-14 02:09:00,75.9,70.0,30.08,West,270,0.7,2.2,82,0.00,,,0.00,pywws,2013-06-14 06:09:00,
2013-06-14 02:14:00,75.7,70.2,30.09,WNW,292,0.0,1.6,83,0.00,,,0.00,pywws,2013-06-14 06:14:00,
2013-06-14 02:19:00,75.6,70.0,30.09,West,270,0.0,1.6,83,0.00,,,0.00,pywws,2013-06-14 06:19:00,
2013-06-14 02:24:00,75.6,70.0,30.09,NW,315,0.7,1.6,83,0.00,,,0.00,pywws,2013-06-14 06:24:00,
2013-06-14 02:35:00,75.4,70.2,30.09,West,270,1.6,2.2,84,0.00,,,0.00,pywws,2013-06-14 06:35:00,
2013-06-14 02:40:00,75.2,70.0,30.10,West,270,0.7,2.2,84,0.00,,,0.00,pywws,2013-06-14 06:40:00,
2013-06-14 02:45:00,74.8,69.7,30.10,NW,315,0.7,2.2,84,0.00,,,0.00,pywws,2013-06-14 06:45:00,
2013-06-14 02:50:00,74.7,69.8,30.10,West,270,0.7,1.6,85,0.00,,,0.00,pywws,2013-06-14 06:50:00,
2013-06-14 02:55:00,74.7,69.8,30.11,WNW,292,0.7,2.2,85,0.00,,,0.00,pywws,2013-06-14 06:55:00,
2013-06-14 03:05:00,74.5,69.7,30.11,West,270,0.0,1.6,85,0.00,,,0.00,pywws,2013-06-14 07:05:00,
2013-06-14 03:10:00,74.5,70.0,30.11,West,270,0.7,2.2,86,0.00,,,0.00,pywws,2013-06-14 07:10:00,
2013-06-14 03:15:00,74.7,70.2,30.11,West,270,0.0,1.6,86,0.00,,,0.00,pywws,2013-06-14 07:15:00,
2013-06-14 03:20:00,74.7,70.2,30.12,West,270,0.7,1.6,86,0.00,,,0.00,pywws,2013-06-14 07:20:00,
2013-06-14 03:25:00,74.7,70.2,30.11,West,270,0.7,1.6,86,0.00,,,0.00,pywws,2013-06-14 07:25:00,
2013-06-14 03:35:00,74.7,70.2,30.11,North,0,0.0,2.2,86,0.00,,,0.00,pywws,2013-06-14 07:35:00,
2013-06-14 03:40:00,74.5,70.0,30.11,NW,315,0.0,0.7,86,0.00,,,0.00,pywws,2013-06-14 07:40:00,
2013-06-14 03:45:00,74.5,70.0,30.11,West,270,0.0,1.6,86,0.00,,,0.00,pywws,2013-06-14 07:45:00,
2013-06-14 03:50:00,74.5,70.0,30.11,NW,315,0.0,0.7,86,0.00,,,0.00,pywws,2013-06-14 07:50:00,
2013-06-14 03:55:00,74.3,69.8,30.11,West,270,0.7,1.6,86,0.00,,,0.00,pywws,2013-06-14 07:55:00,
2013-06-14 04:05:00,74.3,69.8,30.11,West,270,0.0,0.0,86,0.00,,,0.00,pywws,2013-06-14 08:05:00,
2013-06-14 04:10:00,73.9,69.8,30.11,West,270,0.0,1.6,87,0.00,,,0.00,pywws,2013-06-14 08:10:00,
2013-06-14 04:15:00,73.8,69.6,30.11,West,270,0.0,0.7,87,0.00,,,0.00,pywws,2013-06-14 08:15:00,
2013-06-14 04:20:00,73.6,69.8,30.11,West,270,0.0,0.0,88,0.00,,,0.00,pywws,2013-06-14 08:20:00,
2013-06-14 04:25:00,73.4,69.6,30.11,West,270,0.0,1.6,88,0.00,,,0.00,pywws,2013-06-14 08:25:00,
2013-06-14 04:35:00,73.4,69.6,30.11,West,270,0.0,0.0,88,0.00,,,0.00,pywws,2013-06-14 08:35:00,
2013-06-14 04:40:00,73.0,69.6,30.12,NW,315,0.0,0.0,89,0.00,,,0.00,pywws,2013-06-14 08:40:00,
2013-06-14 04:45:00,72.9,69.4,30.11,NW,315,0.0,0.7,89,0.00,,,0.00,pywws,2013-06-14 08:45:00,
2013-06-14 04:50:00,72.7,69.6,30.11,NW,315,0.0,1.6,90,0.00,,,0.00,pywws,2013-06-14 08:50:00,
2013-06-14 04:55:00,72.7,69.6,30.11,NE,45,0.0,1.6,90,0.00,,,0.00,pywws,2013-06-14 08:55:00,
2013-06-14 05:05:00,72.5,69.7,30.11,North,0,0.7,2.2,91,0.00,,,0.00,pywws,2013-06-14 09:05:00,
2013-06-14 05:10:00,72.3,69.5,30.11,West,270,0.0,0.7,91,0.00,,,0.00,pywws,2013-06-14 09:10:00,
2013-06-14 05:15:00,72.3,69.5,30.11,West,270,0.0,0.0,91,0.00,,,0.00,pywws,2013-06-14 09:15:00,
2013-06-14 05:20:00,72.1,69.4,30.11,NW,315,0.0,0.0,91,0.00,,,0.00,pywws,2013-06-14 09:20:00,
2013-06-14 05:25:00,72.0,69.5,30.10,NW,315,0.0,0.0,92,0.00,,,0.00,pywws,2013-06-14 09:25:00,
2013-06-14 05:35:00,71.8,69.3,30.10,NW,315,0.0,0.0,92,0.00,,,0.00,pywws,2013-06-14 09:35:00,
2013-06-14 05:40:00,71.6,69.5,30.09,North,0,0.7,1.6,93,0.00,,,0.00,pywws,2013-06-14 09:40:00,
2013-06-14 05:45:00,71.6,69.5,30.09,North,0,0.0,0.7,93,0.00,,,0.00,pywws,2013-06-14 09:45:00,
2013-06-14 05:50:00,71.4,69.3,30.09,North,0,0.0,0.0,93,0.00,,,0.00,pywws,2013-06-14 09:50:00,
2013-06-14 05:55:00,71.4,69.3,30.09,West,270,0.0,0.7,93,0.00,,,0.00,pywws,2013-06-14 09:55:00,
2013-06-14 06:05:00,71.2,69.1,30.08,West,270,0.7,2.2,93,0.00,,,0.00,pywws,2013-06-14 10:05:00,
2013-06-14 06:10:00,71.2,69.4,30.08,West,270,0.0,0.0,94,0.00,,,0.00,pywws,2013-06-14 10:10:00,
2013-06-14 06:15:00,71.2,69.4,30.08,South,180,0.0,0.0,94,0.00,,,0.00,pywws,2013-06-14 10:15:00,
2013-06-14 06:20:00,71.1,69.2,30.07,West,270,0.7,1.6,94,0.00,,,0.00,pywws,2013-06-14 10:20:00,
2013-06-14 06:25:00,71.1,69.2,30.07,NW,315,0.0,0.0,94,0.00,,,0.00,pywws,2013-06-14 10:25:00,
2013-06-14 06:35:00,71.1,69.2,30.07,WNW,292,0.7,2.2,94,0.00,,,0.00,pywws,2013-06-14 10:35:00,
2013-06-14 06:39:00,71.1,68.9,30.06,WSW,248,0.7,1.6,93,0.00,,,0.00,pywws,2013-06-14 10:39:00,
2013-06-14 06:44:00,70.9,68.8,30.06,West,270,0.7,1.6,93,0.00,,,0.00,pywws,2013-06-14 10:44:00,
2013-06-14 06:49:00,70.9,68.8,30.06,West,270,0.7,1.6,93,0.00,,,0.00,pywws,2013-06-14 10:49:00,
2013-06-14 06:54:00,70.9,68.4,30.06,South,180,0.0,0.7,92,0.00,,,0.00,pywws,2013-06-14 10:54:00,
2013-06-14 07:05:00,70.7,68.3,30.06,SW,225,0.0,1.6,92,0.00,,,0.00,pywws,2013-06-14 11:05:00,
2013-06-14 07:10:00,70.9,68.1,30.05,West,270,0.7,1.6,91,0.00,,,0.00,pywws,2013-06-14 11:10:00,
2013-06-14 07:15:00,70.9,67.8,30.04,SW,225,0.7,2.2,90,0.00,,,0.00,pywws,2013-06-14 11:15:00,
2013-06-14 07:20:00,71.1,67.6,30.04,West,270,1.6,3.1,89,0.00,,,0.00,pywws,2013-06-14 11:20:00,
2013-06-14 07:25:00,71.2,67.5,30.03,SW,225,0.0,1.6,88,0.00,,,0.00,pywws,2013-06-14 11:25:00,
2013-06-14 07:35:00,71.2,67.2,30.03,West,270,1.6,2.2,87,0.00,,,0.00,pywws,2013-06-14 11:35:00,
2013-06-14 07:39:00,71.4,66.7,30.02,West,270,0.7,3.1,85,0.00,,,0.00,pywws,2013-06-14 11:39:00,
2013-06-14 07:44:00,71.6,66.5,30.02,NW,315,0.0,0.7,84,0.00,,,0.00,pywws,2013-06-14 11:44:00,
2013-06-14 07:49:00,71.6,65.8,30.02,West,270,0.7,3.1,82,0.00,,,0.00,pywws,2013-06-14 11:49:00,
2013-06-14 07:54:00,72.0,65.8,30.01,West,270,0.0,1.6,81,0.00,,,0.00,pywws,2013-06-14 11:54:00,
2013-06-14 08:05:00,72.1,64.9,30.01,SE,135,0.7,1.6,78,0.00,,,0.00,pywws,2013-06-14 12:05:00,
2013-06-14 08:10:00,72.5,64.1,30.01,SW,225,0.0,1.6,75,0.00,,,0.00,pywws,2013-06-14 12:10:00,
2013-06-14 08:15:00,72.7,63.9,30.00,SW,225,0.7,2.2,74,0.00,,,0.00,pywws,2013-06-14 12:15:00,
2013-06-14 08:20:00,72.9,64.1,30.00,NW,315,0.7,2.2,74,0.00,,,0.00,pywws,2013-06-14 12:20:00,
2013-06-14 08:25:00,73.2,63.6,29.99,North,0,0.0,2.2,72,0.00,,,0.00,pywws,2013-06-14 12:25:00,
2013-06-14 08:35:00,73.4,63.8,29.99,West,270,0.7,1.6,72,0.00,,,0.00,pywws,2013-06-14 12:35:00,
2013-06-14 08:39:00,73.8,63.8,29.98,North,0,0.0,0.7,71,0.00,,,0.00,pywws,2013-06-14 12:39:00,
2013-06-14 08:44:00,73.9,63.5,29.98,West,270,0.7,2.2,70,0.00,,,0.00,pywws,2013-06-14 12:44:00,
2013-06-14 08:49:00,73.9,62.3,29.98,East,90,1.6,3.8,67,0.00,,,0.00,pywws,2013-06-14 12:49:00,
2013-06-14 08:54:00,74.5,62.8,29.97,West,270,1.6,3.1,67,0.00,,,0.00,pywws,2013-06-14 12:54:00,
2013-06-14 09:05:00,74.7,61.7,29.97,South,180,0.7,2.2,64,0.00,,,0.00,pywws,2013-06-14 13:05:00,
2013-06-14 09:10:00,75.2,61.3,29.97,NW,315,1.6,3.8,62,0.00,,,0.00,pywws,2013-06-14 13:10:00,
2013-06-14 09:15:00,75.2,60.8,29.97,SW,225,2.2,4.5,61,0.00,,,0.00,pywws,2013-06-14 13:15:00,
2013-06-14 09:20:00,75.6,61.1,29.97,NW,315,0.7,2.2,61,0.00,,,0.00,pywws,2013-06-14 13:20:00,
2013-06-14 09:25:00,75.7,59.9,29.96,SE,135,3.1,4.5,58,0.00,,,0.00,pywws,2013-06-14 13:25:00,
2013-06-14 09:35:00,76.1,59.7,29.96,SW,225,0.7,3.1,57,0.00,,,0.00,pywws,2013-06-14 13:35:00,
2013-06-14 09:39:00,76.6,59.7,29.96,SW,225,0.7,2.2,56,0.00,,,0.00,pywws,2013-06-14 13:39:00,
2013-06-14 09:44:00,77.5,60.1,29.96,South,180,0.7,2.2,55,0.00,,,0.00,pywws,2013-06-14 13:44:00,
2013-06-14 09:49:00,77.7,60.2,29.96,SW,225,0.0,1.6,55,0.00,,,0.00,pywws,2013-06-14 13:49:00,
2013-06-14 09:54:00,77.7,60.2,29.95,NW,315,2.2,4.5,55,0.00,,,0.00,pywws,2013-06-14 13:54:00,
2013-06-14 10:05:00,77.7,60.2,29.95,West,270,0.7,2.2,55,0.00,,,0.00,pywws,2013-06-14 14:05:00,
2013-06-14 10:09:00,78.4,59.9,29.95,South,180,0.0,1.6,53,0.00,,,0.00,pywws,2013-06-14 14:09:00,
2013-06-14 10:14:00,78.8,60.7,29.95,South,180,0.7,2.2,54,0.00,,,0.00,pywws,2013-06-14 14:14:00,
2013-06-14 10:19:00,79.0,58.2,29.95,South,180,0.7,5.4,49,0.00,,,0.00,pywws,2013-06-14 14:19:00,
2013-06-14 10:24:00,79.2,59.5,29.95,South,180,1.6,3.1,51,0.00,,,0.00,pywws,2013-06-14 14:24:00,
2013-06-14 10:35:00,79.3,58.5,29.94,NW,315,3.1,6.0,49,0.00,,,0.00,pywws,2013-06-14 14:35:00,
2013-06-14 10:39:00,79.3,57.9,29.94,NW,315,1.6,5.4,48,0.00,,,0.00,pywws,2013-06-14 14:39:00,
2013-06-14 10:44:00,79.5,58.7,29.94,South,180,1.6,3.8,49,0.00,,,0.00,pywws,2013-06-14 14:44:00,
2013-06-14 10:49:00,79.7,59.4,29.94,East,90,0.7,2.2,50,0.00,,,0.00,pywws,2013-06-14 14:49:00,
2013-06-14 10:54:00,80.2,60.4,29.94,South,180,0.7,2.2,51,0.00,,,0.00,pywws,2013-06-14 14:54:00,
2013-06-14 11:05:00,80.6,58.5,29.93,South,180,1.6,3.8,47,0.00,,,0.00,pywws,2013-06-14 15:05:00,
2013-06-14 11:10:00,81.7,58.2,29.93,NNW,338,1.6,3.8,45,0.00,,,0.00,pywws,2013-06-14 15:10:00,
2013-06-14 11:15:00,83.3,60.3,29.93,SW,225,0.7,2.2,46,0.00,,,0.00,pywws,2013-06-14 15:15:00,
2013-06-14 11:20:00,84.4,59.4,29.93,SW,225,0.0,2.2,43,0.00,,,0.00,pywws,2013-06-14 15:20:00,
2013-06-14 11:25:00,84.9,57.9,29.93,SW,225,0.0,2.2,40,0.00,,,0.00,pywws,2013-06-14 15:25:00,
2013-06-14 11:35:00,85.6,58.5,29.93,SW,225,0.7,3.8,40,0.00,,,0.00,pywws,2013-06-14 15:35:00,
2013-06-14 11:39:00,86.5,59.3,29.93,South,180,0.0,1.6,40,0.00,,,0.00,pywws,2013-06-14 15:39:00,
2013-06-14 11:44:00,86.7,59.5,29.92,WNW,292,0.7,3.1,40,0.00,,,0.00,pywws,2013-06-14 15:44:00,
2013-06-14 11:49:00,86.9,57.5,29.92,SE,135,0.7,2.2,37,0.00,,,0.00,pywws,2013-06-14 15:49:00,
2013-06-14 11:54:00,87.6,58.1,29.92,South,180,0.7,3.1,37,0.00,,,0.00,pywws,2013-06-14 15:54:00,
2013-06-14 12:05:00,88.2,58.6,29.91,West,270,1.6,3.1,37,0.00,,,0.00,pywws,2013-06-14 16:05:00,
2013-06-14 12:09:00,87.1,58.4,29.91,West,270,3.1,4.5,38,0.00,,,0.00,pywws,2013-06-14 16:09:00,
2013-06-14 12:14:00,87.1,59.8,29.91,South,180,0.0,2.2,40,0.00,,,0.00,pywws,2013-06-14 16:14:00,
2013-06-14 12:19:00,86.9,57.5,29.90,South,180,0.0,1.6,37,0.00,,,0.00,pywws,2013-06-14 16:19:00,
2013-06-14 12:24:00,87.3,58.5,29.90,West,270,2.2,4.5,38,0.00,,,0.00,pywws,2013-06-14 16:24:00,
2013-06-14 12:35:00,86.9,58.2,29.90,South,180,1.6,3.1,38,0.00,,,0.00,pywws,2013-06-14 16:35:00,
2013-06-14 12:39:00,88.0,59.2,29.89,WNW,292,0.0,2.2,38,0.00,,,0.00,pywws,2013-06-14 16:39:00,
2013-06-14 12:44:00,88.3,58.0,29.89,West,270,1.6,3.8,36,0.00,,,0.00,pywws,2013-06-14 16:44:00,
2013-06-14 12:49:00,88.3,59.5,29.88,West,270,0.7,3.8,38,0.00,,,0.00,pywws,2013-06-14 16:49:00,
2013-06-14 12:54:00,88.3,58.0,29.88,SW,225,0.0,1.6,36,0.00,,,0.00,pywws,2013-06-14 16:54:00,
2013-06-14 13:05:00,88.9,58.4,29.87,SE,135,0.0,1.6,36,0.00,,,0.00,pywws,2013-06-14 17:05:00,
2013-06-14 13:10:00,88.2,57.8,29.86,SSE,158,0.7,2.2,36,0.00,,,0.00,pywws,2013-06-14 17:10:00,
2013-06-14 13:15:00,88.3,58.7,29.86,SE,135,0.7,2.2,37,0.00,,,0.00,pywws,2013-06-14 17:15:00,
2013-06-14 13:20:00,88.9,59.2,29.85,NW,315,1.6,3.1,37,0.00,,,0.00,pywws,2013-06-14 17:20:00,
2013-06-14 13:25:00,88.9,58.4,29.85,NE,45,1.6,3.1,36,0.00,,,0.00,pywws,2013-06-14 17:25:00,
2013-06-14 13:35:00,89.4,58.9,29.85,West,270,1.6,2.2,36,0.00,,,0.00,pywws,2013-06-14 17:35:00,
2013-06-14 13:39:00,89.2,59.5,29.85,NW,315,1.6,3.1,37,0.00,,,0.00,pywws,2013-06-14 17:39:00,
2013-06-14 13:44:00,89.1,59.4,29.85,West,270,3.1,4.5,37,0.00,,,0.00,pywws,2013-06-14 17:44:00,
2013-06-14 13:49:00,88.2,59.3,29.85,NW,315,1.6,3.1,38,0.00,,,0.00,pywws,2013-06-14 17:49:00,
2013-06-14 13:54:00,88.9,59.2,29.85,SW,225,0.7,3.1,37,0.00,,,0.00,pywws,2013-06-14 17:54:00,
2013-06-14 14:05:00,90.1,59.5,29.84,South,180,0.7,2.2,36,0.00,,,0.00,pywws,2013-06-14 18:05:00,
2013-06-14 14:09:00,89.2,59.5,29.84,West,270,0.7,2.2,37,0.00,,,0.00,pywws,2013-06-14 18:09:00,
2013-06-14 14:14:00,90.3,60.5,29.85,North,0,0.7,2.2,37,0.00,,,0.00,pywws,2013-06-14 18:14:00,
2013-06-14 14:19:00,90.3,57.3,29.85,South,180,0.7,2.2,33,0.00,,,0.00,pywws,2013-06-14 18:19:00,
2013-06-14 14:24:00,90.9,59.4,29.85,South,180,0.0,1.6,35,0.00,,,0.00,pywws,2013-06-14 18:24:00,
2013-06-14 14:35:00,91.2,57.2,29.85,NNW,338,1.6,3.1,32,0.00,,,0.00,pywws,2013-06-14 18:35:00,
2013-06-14 14:40:00,90.9,57.7,29.84,WNW,292,0.7,3.1,33,0.00,,,0.00,pywws,2013-06-14 18:40:00,
2013-06-14 14:45:00,90.9,58.6,29.84,South,180,1.6,3.1,34,0.00,,,0.00,pywws,2013-06-14 18:45:00,
2013-06-14 14:50:00,91.0,57.9,29.84,SE,135,1.6,3.1,33,0.00,,,0.00,pywws,2013-06-14 18:50:00,
2013-06-14 14:55:00,90.9,57.7,29.85,West,270,1.6,3.8,33,0.00,,,0.00,pywws,2013-06-14 18:55:00,
2013-06-14 15:05:00,90.9,56.9,29.85,South,180,0.7,3.1,32,0.00,,,0.00,pywws,2013-06-14 19:05:00,
2013-06-14 15:09:00,91.2,56.3,29.84,NW,315,1.6,3.1,31,0.00,,,0.00,pywws,2013-06-14 19:09:00,
2013-06-14 15:14:00,91.2,58.0,29.84,SW,225,0.7,1.6,33,0.00,,,0.00,pywws,2013-06-14 19:14:00,
2013-06-14 15:19:00,91.9,57.8,29.84,SW,225,0.7,3.1,32,0.00,,,0.00,pywws,2013-06-14 19:19:00,
2013-06-14 15:24:00,92.3,57.2,29.84,SE,135,1.6,2.2,31,0.00,,,0.00,pywws,2013-06-14 19:24:00,
2013-06-14 15:35:00,91.4,58.2,29.85,NW,315,0.0,1.6,33,0.00,,,0.00,pywws,2013-06-14 19:35:00,
2013-06-14 15:39:00,91.6,57.5,29.85,NNE,22,0.7,3.8,32,0.00,,,0.00,pywws,2013-06-14 19:39:00,
2013-06-14 15:44:00,91.6,56.6,29.85,NNW,338,1.6,3.8,31,0.00,,,0.00,pywws,2013-06-14 19:44:00,
2013-06-14 15:49:00,91.6,58.4,29.85,SW,225,0.7,2.2,33,0.00,,,0.00,pywws,2013-06-14 19:49:00,
2013-06-14 15:54:00,91.4,57.3,29.85,South,180,0.7,3.1,32,0.00,,,0.00,pywws,2013-06-14 19:54:00,
2013-06-14 16:05:00,90.0,56.1,29.85,NW,315,0.0,3.1,32,0.00,,,0.00,pywws,2013-06-14 20:05:00,
2013-06-14 16:09:00,90.7,57.6,29.85,West,270,0.0,1.6,33,0.00,,,0.00,pywws,2013-06-14 20:09:00,
2013-06-14 16:14:00,90.7,54.9,29.86,NNW,338,2.2,3.1,30,0.00,,,0.00,pywws,2013-06-14 20:14:00,
2013-06-14 16:19:00,89.4,53.9,29.86,North,0,1.6,4.5,30,0.00,,,0.00,pywws,2013-06-14 20:19:00,
2013-06-14 16:24:00,88.7,55.0,29.85,South,180,0.7,3.8,32,0.00,,,0.00,pywws,2013-06-14 20:24:00,
2013-06-14 16:35:00,88.0,56.9,29.85,North,0,2.2,3.8,35,0.00,,,0.00,pywws,2013-06-14 20:35:00,
2013-06-14 16:39:00,88.2,57.0,29.85,ESE,112,1.6,5.4,35,0.00,,,0.00,pywws,2013-06-14 20:39:00,
2013-06-14 16:44:00,88.0,55.2,29.86,SW,225,0.7,2.2,33,0.00,,,0.00,pywws,2013-06-14 20:44:00,
2013-06-14 16:49:00,87.8,58.2,29.86,SE,135,1.6,2.2,37,0.00,,,0.00,pywws,2013-06-14 20:49:00,
2013-06-14 16:54:00,87.4,56.4,29.87,NW,315,0.7,3.1,35,0.00,,,0.00,pywws,2013-06-14 20:54:00,
2013-06-14 17:05:00,87.4,57.2,29.86,North,0,0.7,2.2,36,0.00,,,0.00,pywws,2013-06-14 21:05:00,
2013-06-14 17:09:00,88.0,58.4,29.85,North,0,0.7,2.2,37,0.00,,,0.00,pywws,2013-06-14 21:09:00,
2013-06-14 17:14:00,87.8,57.5,29.85,East,90,0.7,3.1,36,0.00,,,0.00,pywws,2013-06-14 21:14:00,
2013-06-14 17:19:00,87.3,57.0,29.86,NW,315,0.7,1.6,36,0.00,,,0.00,pywws,2013-06-14 21:19:00,
2013-06-14 17:24:00,86.5,59.3,29.86,NE,45,0.7,3.1,40,0.00,,,0.00,pywws,2013-06-14 21:24:00,
2013-06-14 17:35:00,86.2,58.3,29.86,SW,225,0.7,2.2,39,0.00,,,0.00,pywws,2013-06-14 21:35:00,
2013-06-14 17:39:00,86.0,58.1,29.86,ENE,68,0.7,1.6,39,0.00,,,0.00,pywws,2013-06-14 21:39:00,
2013-06-14 17:44:00,85.6,56.3,29.85,SW,225,1.6,4.5,37,0.00,,,0.00,pywws,2013-06-14 21:44:00,
2013-06-14 17:49:00,85.6,57.8,29.85,WNW,292,0.7,2.2,39,0.00,,,0.00,pywws,2013-06-14 21:49:00,
2013-06-14 17:54:00,85.5,57.6,29.85,South,180,0.7,2.2,39,0.00,,,0.00,pywws,2013-06-14 21:54:00,
2013-06-14 18:05:00,86.2,58.3,29.86,SW,225,0.7,3.1,39,0.00,,,0.00,pywws,2013-06-14 22:05:00,
2013-06-14 18:09:00,87.6,58.8,29.87,SSE,158,2.2,4.5,38,0.00,,,0.00,pywws,2013-06-14 22:09:00,
2013-06-14 18:14:00,86.9,58.2,29.86,WSW,248,0.7,3.8,38,0.00,,,0.00,pywws,2013-06-14 22:14:00,
2013-06-14 18:19:00,86.0,58.8,29.86,East,90,0.0,0.7,40,0.00,,,0.00,pywws,2013-06-14 22:19:00,
2013-06-14 18:24:00,85.3,58.9,29.85,West,270,0.7,2.2,41,0.00,,,0.00,pywws,2013-06-14 22:24:00,
2013-06-14 18:35:00,84.9,58.6,29.85,SW,225,1.6,3.1,41,0.00,,,0.00,pywws,2013-06-14 22:35:00,
2013-06-14 18:39:00,84.7,58.4,29.86,SW,225,1.6,3.8,41,0.00,,,0.00,pywws,2013-06-14 22:39:00,
2013-06-14 18:44:00,84.4,59.4,29.87,South,180,0.0,1.6,43,0.00,,,0.00,pywws,2013-06-14 22:44:00,
2013-06-14 18:49:00,84.2,58.6,29.86,WNW,292,0.0,1.6,42,0.00,,,0.00,pywws,2013-06-14 22:49:00,
2013-06-14 18:54:00,83.8,59.6,29.86,North,0,0.0,1.6,44,0.00,,,0.00,pywws,2013-06-14 22:54:00,
2013-06-14 19:05:00,83.5,59.9,29.86,NW,315,0.0,0.7,45,0.00,,,0.00,pywws,2013-06-14 23:05:00,
2013-06-14 19:09:00,83.5,60.5,29.86,SE,135,0.0,0.7,46,0.00,,,0.00,pywws,2013-06-14 23:09:00,
2013-06-14 19:14:00,83.3,59.7,29.86,NW,315,0.7,3.1,45,0.00,,,0.00,pywws,2013-06-14 23:14:00,
2013-06-14 19:19:00,82.9,60.0,29.87,East,90,0.0,0.7,46,0.00,,,0.00,pywws,2013-06-14 23:19:00,
2013-06-14 19:24:00,82.9,60.0,29.87,SE,135,0.0,1.6,46,0.00,,,0.00,pywws,2013-06-14 23:24:00,
2013-06-14 19:35:00,82.9,59.4,29.86,South,180,0.0,0.7,45,0.00,,,0.00,pywws,2013-06-14 23:35:00,
2013-06-14 19:39:00,82.4,59.5,29.86,SE,135,0.0,1.6,46,0.00,,,0.00,pywws,2013-06-14 23:39:00,
2013-06-14 19:44:00,81.9,60.2,29.86,SE,135,0.7,1.6,48,0.00,,,0.00,pywws,2013-06-14 23:44:00,
2013-06-14 19:49:00,81.5,59.3,29.86,SW,225,0.0,0.7,47,0.00,,,0.00,pywws,2013-06-14 23:49:00,
2013-06-14 19:54:00,81.0,60.0,29.87,SE,135,0.0,0.7,49,0.00,,,0.00,pywws,2013-06-14 23:54:00,
2013-06-14 20:05:00,80.4,60.1,29.87,North,0,0.0,0.7,50,0.00,,,0.00,pywws,2013-06-15 00:05:00,
2013-06-14 20:09:00,79.9,59.6,29.86,SW,225,0.7,2.2,50,0.00,,,0.00,pywws,2013-06-15 00:09:00,
2013-06-14 20:14:00,79.5,60.3,29.86,South,180,0.0,0.0,52,0.00,,,0.00,pywws,2013-06-15 00:14:00,
2013-06-14 20:19:00,79.3,60.2,29.86,SW,225,0.0,0.0,52,0.00,,,0.00,pywws,2013-06-15 00:19:00,
2013-06-14 20:24:00,79.0,60.4,29.86,South,180,0.0,0.0,53,0.00,,,0.00,pywws,2013-06-15 00:24:00,
2013-06-14 20:35:00,78.4,59.9,29.86,SW,225,0.0,0.0,53,0.00,,,0.00,pywws,2013-06-15 00:35:00,
2013-06-14 20:39:00,77.5,60.1,29.86,NE,45,0.0,0.0,55,0.00,,,0.00,pywws,2013-06-15 00:39:00,
2013-06-14 20:44:00,77.2,60.2,29.86,NE,45,0.0,0.0,56,0.00,,,0.00,pywws,2013-06-15 00:44:00,
2013-06-14 20:49:00,76.6,60.2,29.87,NE,45,0.0,0.0,57,0.00,,,0.00,pywws,2013-06-15 00:49:00,
2013-06-14 20:54:00,76.1,60.2,29.88,NE,45,0.0,0.0,58,0.00,,,0.00,pywws,2013-06-15 00:54:00,
2013-06-14 21:05:00,75.7,60.4,29.88,East,90,0.0,0.7,59,0.00,,,0.00,pywws,2013-06-15 01:05:00,
2013-06-14 21:09:00,75.0,60.6,29.90,NE,45,0.0,1.6,61,0.00,,,0.00,pywws,2013-06-15 01:09:00,
2013-06-14 21:14:00,74.7,60.3,29.90,NE,45,0.0,0.7,61,0.00,,,0.00,pywws,2013-06-15 01:14:00,
2013-06-14 21:19:00,74.3,60.0,29.91,NE,45,0.0,0.0,61,0.00,,,0.00,pywws,2013-06-15 01:19:00,
2013-06-14 21:24:00,74.1,60.3,29.91,South,180,0.0,0.0,62,0.00,,,0.00,pywws,2013-06-15 01:24:00,
2013-06-14 21:35:00,73.9,60.5,29.92,West,270,0.0,0.0,63,0.00,,,0.00,pywws,2013-06-15 01:35:00,
2013-06-14 21:39:00,73.4,60.5,29.93,SE,135,0.0,0.0,64,0.00,,,0.00,pywws,2013-06-15 01:39:00,
2013-06-14 21:44:00,73.2,60.3,29.94,SE,135,0.0,0.0,64,0.00,,,0.00,pywws,2013-06-15 01:44:00,
2013-06-14 21:49:00,73.0,60.6,29.94,SE,135,0.0,0.0,65,0.00,,,0.00,pywws,2013-06-15 01:49:00,
2013-06-14 21:54:00,72.9,60.4,29.95,SE,135,0.0,0.0,65,0.00,,,0.00,pywws,2013-06-15 01:54:00,
2013-06-14 22:05:00,72.5,60.5,29.96,SE,135,0.0,0.7,66,0.00,,,0.00,pywws,2013-06-15 02:05:00,
2013-06-14 22:09:00,72.3,60.7,29.97,North,0,0.0,0.7,67,0.00,,,0.00,pywws,2013-06-15 02:09:00,
2013-06-14 22:14:00,72.1,60.6,29.97,North,0,0.0,0.0,67,0.00,,,0.00,pywws,2013-06-15 02:14:00,
2013-06-14 22:19:00,72.0,60.4,29.98,North,0,0.0,0.0,67,0.00,,,0.00,pywws,2013-06-15 02:19:00,
2013-06-14 22:24:00,71.8,60.6,29.98,North,0,0.0,0.0,68,0.00,,,0.00,pywws,2013-06-15 02:24:00,
2013-06-14 22:35:00,71.6,60.9,29.98,North,0,0.0,0.0,69,0.00,,,0.00,pywws,2013-06-15 02:35:00,
2013-06-14 22:39:00,71.4,60.7,30.00,North,0,0.0,0.0,69,0.00,,,0.00,pywws,2013-06-15 02:39:00,
2013-06-14 22:44:00,71.4,61.1,30.01,North,0,0.0,0.0,70,0.00,,,0.00,pywws,2013-06-15 02:44:00,
2013-06-14 22:49:00,71.4,61.1,30.01,North,0,0.0,0.0,70,0.00,,,0.00,pywws,2013-06-15 02:49:00,
2013-06-14 22:54:00,71.2,60.9,30.01,North,0,0.0,0.0,70,0.00,,,0.00,pywws,2013-06-15 02:54:00,
2013-06-14 23:05:00,71.1,60.8,30.02,North,0,0.0,0.0,70,0.00,,,0.00,pywws,2013-06-15 03:05:00,
2013-06-14 23:09:00,70.9,61.0,30.03,SE,135,0.0,0.0,71,0.00,,,0.00,pywws,2013-06-15 03:09:00,
2013-06-14 23:14:00,70.7,60.8,30.03,SE,135,0.0,0.0,71,0.00,,,0.00,pywws,2013-06-15 03:14:00,
2013-06-14 23:19:00,70.5,60.7,30.04,SE,135,0.0,0.0,71,0.00,,,0.00,pywws,2013-06-15 03:19:00,
2013-06-14 23:24:00,70.5,60.7,30.04,SE,135,0.0,0.0,71,0.00,,,0.00,pywws,2013-06-15 03:24:00,
2013-06-14 23:35:00,70.3,60.5,30.05,SE,135,0.0,0.0,71,0.00,,,0.00,pywws,2013-06-15 03:35:00,
2013-06-14 23:40:00,70.2,60.3,30.06,SW,225,0.0,1.6,71,0.00,,,0.00,pywws,2013-06-15 03:40:00,
2013-06-14 23:45:00,70.2,60.7,30.06,NE,45,0.0,0.0,72,0.00,,,0.00,pywws,2013-06-15 03:45:00,
2013-06-14 23:50:00,70.2,60.7,30.07,South,180,0.0,0.7,72,0.00,,,0.00,pywws,2013-06-15 03:50:00,
2013-06-14 23:55:00,69.8,60.7,30.08,South,180,0.0,1.6,73,0.00,,,0.00,pywws,2013-06-15 03:55:00,